| time (UTC) | temp F | wind direction | speed MPH | gust MPH | rain 1hr in | rain 24hr in | rain mn in | humidity % | barometer mb |
| 20260505124527 | 55 | 360 | 9.0 | 15.0 | 0.00 | 0.00 | 0.00 | 75 | 1005.2 |
| 20260505123531 | 56 | 360 | 11.0 | 16.0 | 0.00 | 0.00 | 0.00 | 75 | 1004.5 |
| 20260505122547 | 56 | 360 | 8.0 | 16.0 | 0.00 | 0.00 | 0.00 | 76 | 1004.7 |
| 20260505121553 | 56 | 360 | 9.0 | 15.0 | 0.00 | 0.00 | 0.00 | 77 | 1004.5 |
| 20260505120554 | 57 | 360 | 11.0 | 17.0 | 0.00 | 0.00 | 0.00 | 77 | 1004.2 |
| 20260505115547 | 57 | 360 | 9.0 | 16.0 | 0.00 | 0.00 | 0.00 | 78 | 1004.0 |
| 20260505114524 | 57 | 360 | 9.0 | 15.0 | 0.00 | 0.00 | 0.00 | 78 | 1003.9 |
| 20260505113536 | 57 | 360 | 11.0 | 17.0 | 0.00 | 0.00 | 0.00 | 78 | 1003.7 |
| 20260505112525 | 57 | 360 | 11.0 | 17.0 | 0.00 | 0.00 | 0.00 | 78 | 1003.6 |
| 20260505111547 | 58 | 360 | 10.0 | 18.0 | 0.00 | 0.00 | 0.00 | 78 | 1003.4 |
| 20260505110532 | 58 | 360 | 9.0 | 17.0 | 0.00 | 0.00 | 0.00 | 78 | 1003.4 |
| 20260505101531 | 65 | 115 | 7.0 | 16.0 | 0.00 | 0.00 | 0.00 | 75 | 1002.9 |
| 20260505100543 | 66 | 116 | 9.0 | 15.0 | 0.00 | 0.00 | 0.00 | 73 | 1002.6 |
| 20260505095557 | 68 | 117 | 6.0 | 14.0 | 0.00 | 0.00 | 0.00 | 73 | 1002.4 |
| 20260505094522 | 68 | 119 | 9.0 | 14.0 | 0.00 | 0.00 | 0.00 | 72 | 1002.2 |
| 20260505093528 | 67 | 119 | 7.0 | 12.0 | 0.00 | 0.00 | 0.00 | 72 | 1001.9 |
| 20260505092520 | 67 | 120 | 7.0 | 12.0 | 0.00 | 0.00 | 0.00 | 73 | 1001.9 |
| 20260505091533 | 68 | 120 | 6.0 | 13.0 | 0.00 | 0.00 | 0.00 | 74 | 1002.0 |
| 20260505090537 | 68 | 121 | 6.0 | 11.0 | 0.00 | 0.00 | 0.00 | 75 | 1001.9 |
| 20260505085526 | 68 | 121 | 5.0 | 11.0 | 0.00 | 0.00 | 0.00 | 75 | 1001.7 |
| 20260505084523 | 68 | 121 | 5.0 | 11.0 | 0.00 | 0.00 | 0.00 | 75 | 1001.6 |
| 20260505083531 | 68 | 121 | 5.0 | 12.0 | 0.00 | 0.00 | 0.00 | 75 | 1001.3 |
| 20260505082522 | 68 | 121 | 5.0 | 12.0 | 0.00 | 0.00 | 0.00 | 76 | 1001.1 |
| 20260505081537 | 67 | 121 | 7.0 | 12.0 | 0.00 | 0.00 | 0.00 | 76 | 1000.9 |
| 20260505080523 | 67 | 121 | 2.0 | 16.0 | 0.00 | 0.00 | 0.00 | 76 | 1000.8 |
| 20260505075528 | 67 | 122 | 7.0 | 14.0 | 0.00 | 0.00 | 0.00 | 76 | 1000.7 |
| 20260505074522 | 67 | 122 | 6.0 | 13.0 | 0.00 | 0.00 | 0.00 | 77 | 1000.7 |
| 20260505073526 | 67 | 123 | 6.0 | 12.0 | 0.00 | 0.00 | 0.00 | 77 | 1000.6 |
| 20260505072533 | 67 | 123 | 7.0 | 11.0 | 0.00 | 0.00 | 0.00 | 77 | 1000.6 |
| 20260505071519 | 67 | 123 | 8.0 | 12.0 | 0.00 | 0.00 | 0.00 | 76 | 1000.7 |
| 20260505070533 | 67 | 123 | 8.0 | 12.0 | 0.00 | 0.00 | 0.00 | 76 | 1000.7 |
| 20260505065522 | 67 | 123 | 7.0 | 12.0 | 0.00 | 0.00 | 0.00 | 75 | 1000.9 |
| 20260505064532 | 68 | 123 | 9.0 | 12.0 | 0.00 | 0.00 | 0.00 | 75 | 1001.0 |
| 20260505063538 | 68 | 123 | 8.0 | 13.0 | 0.00 | 0.00 | 0.00 | 75 | 1001.2 |
| 20260505062547 | 68 | 123 | 8.0 | 11.0 | 0.00 | 0.00 | 0.00 | 74 | 1001.3 |
| 20260505061520 | 68 | 123 | 7.0 | 11.0 | 0.00 | 0.00 | 0.00 | 73 | 1001.2 |
| 20260505060515 | 68 | 123 | 7.0 | 11.0 | 0.00 | 0.00 | 0.00 | 73 | 1001.2 |
| 20260505055533 | 68 | 123 | 7.0 | 11.0 | 0.00 | 0.00 | 0.00 | 73 | 1001.2 |
| 20260505054528 | 69 | 123 | 7.0 | 12.0 | 0.00 | 0.00 | 0.00 | 73 | 1001.1 |
| 20260505053515 | 69 | 123 | 8.0 | 14.0 | 0.00 | 0.00 | 0.00 | 73 | 1001.1 |
| 20260505052529 | 69 | 124 | 8.0 | 13.0 | 0.00 | 0.00 | 0.00 | 73 | 1001.1 |
| 20260505051529 | 69 | 124 | 8.0 | 13.0 | 0.00 | 0.00 | 0.00 | 73 | 1001.4 |
| 20260505050542 | 69 | 124 | 7.0 | 11.0 | 0.00 | 0.00 | 0.00 | 73 | 1001.7 |
| 20260505041550 | 71 | 129 | 4.0 | 10.0 | 0.00 | 0.00 | 0.00 | 71 | 1001.6 |
| 20260505040555 | 71 | 130 | 6.0 | 11.0 | 0.00 | 0.00 | 0.00 | 71 | 1001.8 |
| 20260505035524 | 71 | 130 | 4.0 | 9.0 | 0.00 | 0.00 | 0.00 | 71 | 1002.0 |
| 20260505034535 | 71 | 131 | 1.0 | 10.0 | 0.00 | 0.00 | 0.00 | 71 | 1002.1 |
| 20260505033524 | 71 | 131 | 3.0 | 7.0 | 0.00 | 0.00 | 0.00 | 71 | 1002.0 |
| 20260505032531 | 71 | 131 | 0.0 | 7.0 | 0.00 | 0.00 | 0.00 | 70 | 1001.9 |
| 20260505031530 | 72 | 130 | 1.0 | 9.0 | 0.00 | 0.00 | 0.00 | 70 | 1001.8 |
| 20260505030526 | 72 | 131 | 2.0 | 11.0 | 0.00 | 0.00 | 0.00 | 70 | 1001.7 |
| 20260505025532 | 72 | 131 | 0.0 | 7.0 | 0.00 | 0.00 | 0.00 | 70 | 1001.4 |
| 20260505024518 | 72 | 131 | 0.0 | 8.0 | 0.00 | 0.00 | 0.00 | 69 | 1001.5 |
| 20260505023552 | 73 | 131 | 0.0 | 2.0 | 0.00 | 0.00 | 0.00 | 67 | 1001.6 |
| 20260505022518 | 73 | 131 | 0.0 | 8.0 | 0.00 | 0.00 | 0.00 | 67 | 1001.6 |
| 20260505021529 | 73 | 131 | 2.0 | 10.0 | 0.00 | 0.00 | 0.00 | 67 | 1001.6 |
| 20260505020527 | 73 | 131 | 6.0 | 9.0 | 0.00 | 0.00 | 0.00 | 67 | 1001.3 |
| 20260505015535 | 73 | 131 | 6.0 | 11.0 | 0.00 | 0.00 | 0.00 | 66 | 1001.3 |
| 20260505014550 | 73 | 132 | 7.0 | 10.0 | 0.00 | 0.00 | 0.00 | 66 | 1001.2 |
| 20260505013524 | 74 | 132 | 6.0 | 9.0 | 0.00 | 0.00 | 0.00 | 65 | 1001.2 |
| 20260505012518 | 74 | 132 | 6.0 | 10.0 | 0.00 | 0.00 | 0.00 | 64 | 1001.3 |
| 20260505011526 | 74 | 133 | 5.0 | 10.0 | 0.00 | 0.00 | 0.00 | 63 | 1001.4 |
| 20260505010536 | 75 | 133 | 7.0 | 10.0 | 0.00 | 0.00 | 0.00 | 62 | 1001.2 |
| 20260505005558 | 75 | 134 | 6.0 | 11.0 | 0.00 | 0.00 | 0.00 | 61 | 1001.2 |
| 20260505004520 | 76 | 136 | 5.0 | 9.0 | 0.00 | 0.00 | 0.00 | 61 | 1001.1 |
| 20260505003531 | 76 | 136 | 4.0 | 9.0 | 0.00 | 0.00 | 0.00 | 60 | 1001.2 |
| 20260505002537 | 77 | 136 | 6.0 | 10.0 | 0.00 | 0.00 | 0.00 | 59 | 1001.2 |
| 20260505001556 | 77 | 360 | 6.0 | 11.0 | 0.00 | 0.00 | 0.00 | 58 | 1001.1 |
| 20260505000525 | 77 | 144 | 6.0 | 11.0 | 0.00 | 0.00 | 0.00 | 57 | 1001.3 |
| 20260504235529 | 78 | 142 | 5.0 | 11.0 | 0.00 | 0.00 | 0.00 | 57 | 1001.4 |
| 20260504234528 | 78 | 142 | 8.0 | 11.0 | 0.00 | 0.00 | 0.00 | 54 | 1001.4 |
| 20260504233531 | 79 | 144 | 8.0 | 11.0 | 0.00 | 0.00 | 0.00 | 54 | 1001.5 |
| 20260504232542 | 79 | 146 | 6.0 | 12.0 | 0.00 | 0.00 | 0.00 | 53 | 1001.7 |
| 20260504231524 | 79 | 360 | 6.0 | 10.0 | 0.00 | 0.00 | 0.00 | 53 | 1001.8 |
| 20260504230532 | 79 | 148 | 7.0 | 11.0 | 0.00 | 0.00 | 0.00 | 52 | 1001.8 |
| 20260504225524 | 79 | 157 | 6.0 | 10.0 | 0.00 | 0.00 | 0.00 | 53 | 1002.0 |
| 20260504224521 | 79 | 153 | 6.0 | 11.0 | 0.00 | 0.00 | 0.00 | 52 | 1002.1 |
| 20260504223532 | 79 | 360 | 7.0 | 11.0 | 0.00 | 0.00 | 0.00 | 50 | 1002.1 |
| 20260504222551 | 80 | 159 | 5.0 | 10.0 | 0.00 | 0.00 | 0.00 | 49 | 1002.1 |
| 20260504221553 | 80 | 360 | 8.0 | 10.0 | 0.00 | 0.00 | 0.00 | 49 | 1002.0 |
| 20260504220522 | 80 | 360 | 5.0 | 10.0 | 0.00 | 0.00 | 0.00 | 50 | 1002.1 |
| 20260504215530 | 80 | 360 | 6.0 | 11.0 | 0.00 | 0.00 | 0.00 | 49 | 1002.3 |
| 20260504214548 | 80 | 360 | 5.0 | 11.0 | 0.00 | 0.00 | 0.00 | 48 | 1002.3 |
| 20260504213521 | 81 | 161 | 8.0 | 11.0 | 0.00 | 0.00 | 0.00 | 48 | 1002.4 |
| 20260504212526 | 80 | 360 | 2.0 | 13.0 | 0.00 | 0.00 | 0.00 | 48 | 1002.6 |
| 20260504211543 | 81 | 360 | 6.0 | 12.0 | 0.00 | 0.00 | 0.00 | 45 | 1002.7 |
| 20260504210606 | 81 | 360 | 3.0 | 10.0 | 0.00 | 0.00 | 0.00 | 45 | 1002.8 |
| 20260504205517 | 81 | 360 | 3.0 | 10.0 | 0.00 | 0.00 | 0.00 | 46 | 1002.9 |
| 20260504204523 | 81 | 360 | 6.0 | 10.0 | 0.00 | 0.00 | 0.00 | 44 | 1003.0 |
| 20260504203533 | 81 | 360 | 6.0 | 11.0 | 0.00 | 0.00 | 0.00 | 45 | 1003.1 |
| 20260504202528 | 81 | 168 | 8.0 | 12.0 | 0.00 | 0.00 | 0.00 | 46 | 1003.2 |
| 20260504201533 | 81 | 169 | 8.0 | 12.0 | 0.00 | 0.00 | 0.00 | 45 | 1003.3 |
| 20260504200522 | 81 | 360 | 3.0 | 13.0 | 0.00 | 0.00 | 0.00 | 45 | 1003.3 |
| 20260504195533 | 81 | 360 | 5.0 | 11.0 | 0.00 | 0.00 | 0.00 | 45 | 1003.5 |
| 20260504194538 | 81 | 360 | 8.0 | 12.0 | 0.00 | 0.00 | 0.00 | 45 | 1003.6 |
| 20260504193529 | 81 | 360 | 2.0 | 13.0 | 0.00 | 0.00 | 0.00 | 45 | 1003.8 |
| 20260504192517 | 81 | 360 | 6.0 | 11.0 | 0.00 | 0.00 | 0.00 | 45 | 1003.7 |
| 20260504191521 | 81 | 360 | 5.0 | 12.0 | 0.00 | 0.00 | 0.00 | 45 | 1003.8 |
| 20260504190530 | 80 | 360 | 5.0 | 12.0 | 0.00 | 0.00 | 0.00 | 44 | 1003.8 |
| 20260504185532 | 80 | 360 | 6.0 | 17.0 | 0.00 | 0.00 | 0.00 | 44 | 1003.9 |
| 20260504184518 | 80 | 360 | 4.0 | 11.0 | 0.00 | 0.00 | 0.00 | 44 | 1004.0 |
| 20260504183549 | 80 | 360 | 5.0 | 14.0 | 0.00 | 0.00 | 0.00 | 45 | 1004.1 |
| 20260504182526 | 80 | 360 | 7.0 | 12.0 | 0.00 | 0.00 | 0.00 | 46 | 1004.2 |
| 20260504181530 | 80 | 360 | 5.0 | 12.0 | 0.00 | 0.00 | 0.00 | 45 | 1004.4 |
| 20260504180541 | 80 | 217 | 2.0 | 11.0 | 0.00 | 0.00 | 0.00 | 45 | 1004.5 |
| 20260504175534 | 79 | 209 | 5.0 | 10.0 | 0.00 | 0.00 | 0.00 | 44 | 1004.6 |
| 20260504174543 | 79 | 360 | 7.0 | 12.0 | 0.00 | 0.00 | 0.00 | 44 | 1004.8 |
| 20260504173544 | 79 | 360 | 6.0 | 13.0 | 0.00 | 0.00 | 0.00 | 44 | 1004.8 |
| 20260504172528 | 79 | 360 | 1.0 | 10.0 | 0.00 | 0.00 | 0.00 | 48 | 1004.9 |
| 20260504171527 | 78 | 360 | 7.0 | 13.0 | 0.00 | 0.00 | 0.00 | 46 | 1004.9 |
| 20260504170534 | 78 | 360 | 5.0 | 11.0 | 0.00 | 0.00 | 0.00 | 46 | 1004.9 |
| 20260504150524 | 73 | 221 | 8.0 | 12.0 | 0.00 | 0.00 | 0.00 | 50 | 1005.6 |
| 20260504140527 | 70 | 360 | 6.0 | 13.0 | 0.00 | 0.00 | 0.00 | 52 | 1006.0 |
| 20260504130537 | 66 | 360 | 2.0 | 9.0 | 0.00 | 0.00 | 0.00 | 56 | 1006.0 |